EW4536 Weather Reports


Display with metric or nautical units.
time (UTC)temp
F
wind
direction
speed
MPH
gust
MPH
rain 1hr
in
rain 24hr
in
rain mn
in
humidity
%
barometer
mb
20260901061514 74 61 0.0 0.0 0.00 0.00 0.00 95 1017.1
20260901060043 73 61 0.0 2.0 0.00 0.00 0.00 95 1017.1
20260901054512 74 61 0.0 0.0 0.00 0.00 0.00 94 1017.2
20260901053053 74 61 0.0 0.0 0.00 0.00 0.00 94 1017.3
20260901051509 74 61 0.0 0.0 0.00 0.00 0.00 94 1017.3
20260901050046 74 61 0.0 0.0 0.00 0.00 0.00 94 1017.4
20260901044613 75 61 0.0 0.0 0.00 0.00 0.00 94 1017.5
20260901043036 75 61 0.0 0.0 0.00 0.00 0.00 93 1017.5
20260901041516 75 61 0.0 0.0 0.00 0.00 0.00 93 1017.6
20260901040048 76 61 0.0 0.0 0.00 0.00 0.00 92 1017.4
20260901034531 76 61 0.0 0.0 0.00 0.00 0.00 91 1017.6
20260901033108 77 61 0.0 0.0 0.00 0.00 0.00 90 1017.7
20260901031604 77 61 0.0 0.0 0.00 0.00 0.00 90 1017.8
20260901030026 77 61 0.0 1.0 0.00 0.00 0.00 88 1017.9
20260901024610 78 61 0.0 2.0 0.00 0.00 0.00 87 1017.9
20260901023021 78 61 0.0 2.0 0.00 0.00 0.00 86 1017.9
20260901021550 78 61 0.0 2.0 0.00 0.00 0.00 86 1017.9
20260901020018 78 61 0.0 0.0 0.00 0.00 0.00 85 1017.7
20260901014605 79 61 0.0 2.0 0.00 0.00 0.00 84 1017.5
20260901013011 79 61 0.0 2.0 0.00 0.00 0.00 84 1017.3
20260901011546 80 61 0.0 3.0 0.00 0.00 0.00 82 1017.0
20260901010012 80 98 1.0 4.0 0.00 0.00 0.00 82 1016.8
20260901004536 81 76 1.0 2.0 0.00 0.00 0.00 81 1016.5
20260901003112 81 75 0.0 4.0 0.00 0.00 0.00 80 1016.5
20260901001547 82 65 0.0 2.0 0.00 0.00 0.00 79 1016.6
20260901000003 82 65 0.0 3.0 0.00 0.00 0.00 78 1016.6
20260831234540 83 72 2.0 6.0 0.00 0.00 0.00 76 1016.4
20260831233005 84 77 1.0 3.0 0.00 0.00 0.00 75 1016.3
20260831231542 84 105 3.0 6.0 0.00 0.00 0.00 75 1016.4
20260831230012 85 86 0.0 3.0 0.00 0.00 0.00 74 1016.2
20260831224551 86 97 2.0 4.0 0.00 0.00 0.00 71 1016.1
20260831223019 87 86 4.0 12.0 0.00 0.00 0.00 68 1016.0
20260831221558 88 70 1.0 7.0 0.00 0.00 0.00 66 1015.7
20260831220019 89 62 1.0 4.0 0.00 0.00 0.00 64 1015.6
20260831214555 88 90 2.0 5.0 0.00 0.00 0.00 66 1015.9
20260831213024 89 95 2.0 5.0 0.00 0.00 0.00 65 1015.7
20260831211607 90 43 2.0 4.0 0.00 0.00 0.00 61 1015.7
20260831210030 90 91 1.0 6.0 0.00 0.00 0.00 64 1015.8
20260831204504 90 105 2.0 4.0 0.00 0.00 0.00 62 1015.8
20260831203043 89 69 2.0 8.0 0.00 0.00 0.00 65 1015.8
20260831201506 89 35 2.0 7.0 0.00 0.00 0.00 66 1015.8
20260831200042 90 84 5.0 8.0 0.00 0.00 0.00 67 1015.8
20260831194502 90 90 3.0 8.0 0.00 0.01 0.00 64 1015.9
20260831193042 88 98 2.0 8.0 0.00 0.01 0.00 69 1016.0
20260831191610 88 81 2.0 10.0 0.00 0.01 0.00 67 1016.2
20260831190101 90 34 2.0 6.0 0.00 0.01 0.00 64 1016.3
20260831184620 88 104 1.0 9.0 0.00 0.01 0.00 70 1016.4
20260831183032 88 69 1.0 8.0 0.00 0.01 0.00 68 1016.8
20260831181608 89 91 0.0 4.0 0.00 0.01 0.00 65 1016.8
20260831180035 87 40 1.0 5.0 0.00 0.01 0.00 70 1017.0
20260831174502 89 110 3.0 8.0 0.00 0.01 0.00 65 1017.1
20260831173039 89 284 3.0 9.0 0.00 0.01 0.00 71 1017.4
20260831171501 87 38 1.0 4.0 0.00 0.01 0.00 72 1017.6
20260831170039 88 16 2.0 6.0 0.00 0.01 0.00 71 1017.8
20260831164517 89 85 2.0 5.0 0.00 0.01 0.00 66 1017.9
20260831163046 88 118 1.0 4.0 0.00 0.01 0.00 70 1018.1
20260831161509 87 125 2.0 4.0 0.00 0.01 0.00 73 1018.3
20260831160046 87 98 1.0 6.0 0.00 0.01 0.00 75 1018.6
20260831154526 87 24 2.0 5.0 0.00 0.01 0.00 74 1018.7
20260831153110 85 27 2.0 5.0 0.00 0.01 0.00 78 1018.7
20260831151524 85 66 1.0 5.0 0.00 0.01 0.00 78 1018.7
20260831150100 83 57 0.0 2.0 0.00 0.01 0.00 83 1018.6
20260831144517 83 34 0.0 3.0 0.00 0.01 0.00 85 1018.5
20260831143052 83 61 0.0 4.0 0.00 0.01 0.00 84 1018.2
20260831141519 82 57 1.0 4.0 0.00 0.01 0.00 88 1018.2
20260831140050 81 33 1.0 4.0 0.00 0.01 0.00 92 1018.1
20260831134521 79 82 1.0 4.0 0.00 0.01 0.00 95 1018.1
20260831133106 77 58 1.0 3.0 0.00 0.01 0.00 96 1018.0
20260831131545 76 72 0.0 2.0 0.00 0.01 0.00 96 1018.0
20260831130036 76 72 0.0 2.0 0.00 0.01 0.00 97 1018.0
20260831124534 75 72 0.0 0.0 0.00 0.01 0.00 97 1018.1
20260831123032 75 72 0.0 2.0 0.00 0.01 0.00 97 1018.0
20260831121529 74 73 0.0 2.0 0.00 0.01 0.00 96 1017.7
20260831120037 74 74 0.0 2.0 0.00 0.01 0.00 96 1017.3
20260831114527 73 74 0.0 2.0 0.00 0.02 0.00 96 1017.3
20260831113026 73 74 0.0 2.0 0.00 0.02 0.00 96 1017.1
20260831111527 73 74 0.0 2.0 0.00 0.02 0.00 96 1017.0
20260831110026 73 74 0.0 0.0 0.00 0.02 0.00 96 1016.9
20260831104531 73 74 0.0 0.0 0.00 0.02 0.00 96 1016.9
20260831103024 73 74 0.0 0.0 0.00 0.02 0.00 96 1016.8
20260831101522 73 74 0.0 0.0 0.00 0.02 0.00 96 1016.7
20260831100021 73 74 0.0 0.0 0.00 0.02 0.00 96 1016.5
20260831094535 73 74 0.0 0.0 0.00 0.04 0.00 96 1016.5
20260831093027 73 74 0.0 0.0 0.00 0.04 0.00 96 1016.5
20260831091535 73 74 0.0 0.0 0.00 0.04 0.00 96 1016.3
20260831090020 73 74 0.0 0.0 0.00 0.04 0.00 96 1016.4
20260831084542 73 74 0.0 0.0 0.00 0.04 0.00 96 1016.4
20260831083018 73 74 0.0 0.0 0.00 0.04 0.00 96 1016.5
20260831081517 73 74 0.0 0.0 0.00 0.04 0.00 96 1016.5
20260831080034 72 74 0.0 0.0 0.00 0.04 0.00 96 1016.6
20260831074529 72 74 0.0 0.0 0.00 0.04 0.00 95 1016.5
20260831073014 73 74 0.0 0.0 0.00 0.04 0.00 95 1016.5
20260831071511 73 74 0.0 0.0 0.00 0.04 0.00 95 1016.7
20260831070010 73 74 0.0 0.0 0.00 0.04 0.00 95 1016.7
20260831064507 73 74 0.0 0.0 0.00 0.05 0.00 95 1016.8
20260831063005 74 74 0.0 0.0 0.00 0.05 0.00 95 1017.0